TimeCST,TemperatureF,Dew PointF,Humidity,Sea Level PressureIn,VisibilityMPH,Wind Direction,Wind SpeedMPH,Gust SpeedMPH,PrecipitationIn,Events,Conditions,WindDirDegrees,DateUTC
12:15 AM,37.4,30.2,75,30.18,10.0,WNW,10.4,17.3,N/A,,Overcast,300,2012-11-12 06:15:00
12:56 AM,37.4,30.2,75,30.22,10.0,WNW,10.4,18.4,N/A,,Overcast,300,2012-11-12 06:56:00
1:15 AM,37.4,28.4,70,30.23,10.0,WNW,11.5,18.4,N/A,,Overcast,300,2012-11-12 07:15:00
1:35 AM,37.4,28.4,70,30.22,10.0,NNW,13.8,19.6,N/A,,Overcast,330,2012-11-12 07:35:00
2:15 AM,35.6,24.8,65,30.25,10.0,NW,8.1,18.4,N/A,,Overcast,320,2012-11-12 08:15:00
2:35 AM,35.6,23.0,60,30.25,10.0,NNW,11.5,17.3,N/A,,Mostly Cloudy,330,2012-11-12 08:35:00
2:55 AM,33.8,21.2,60,30.25,10.0,NNW,13.8,19.6,N/A,,Partly Cloudy,330,2012-11-12 08:55:00
3:35 AM,33.8,23.0,65,30.27,10.0,NNW,15.0,20.7,N/A,,Clear,330,2012-11-12 09:35:00
3:55 AM,33.8,21.2,60,30.28,10.0,NNW,9.2,16.1,N/A,,Clear,330,2012-11-12 09:55:00
4:15 AM,33.8,21.2,60,30.30,10.0,NNW,5.8,-,N/A,,Partly Cloudy,340,2012-11-12 10:15:00
4:35 AM,33.8,21.2,60,30.31,10.0,NW,6.9,-,N/A,,Clear,310,2012-11-12 10:35:00
4:55 AM,33.8,21.2,60,30.32,10.0,NNW,8.1,-,N/A,,Clear,340,2012-11-12 10:55:00
5:16 AM,32.0,19.4,60,30.33,10.0,WNW,4.6,-,N/A,,Clear,300,2012-11-12 11:16:00
5:35 AM,32.0,19.4,60,30.34,10.0,WNW,4.6,-,N/A,,Clear,290,2012-11-12 11:35:00
6:55 AM,30.2,21.2,69,30.37,10.0,West,4.6,-,N/A,,Clear,280,2012-11-12 12:55:00
7:35 AM,32.0,21.2,64,30.40,10.0,West,5.8,-,N/A,,Clear,280,2012-11-12 13:35:00
7:55 AM,32.0,19.4,60,30.41,10.0,WNW,4.6,-,N/A,,Clear,290,2012-11-12 13:55:00
8:55 AM,35.6,19.4,52,30.43,10.0,NW,3.5,-,N/A,,Clear,310,2012-11-12 14:55:00
9:15 AM,35.6,19.4,52,30.43,10.0,NW,8.1,-,N/A,,Clear,310,2012-11-12 15:15:00
9:36 AM,37.4,19.4,48,30.43,10.0,NW,5.8,-,N/A,,Clear,310,2012-11-12 15:36:00
10:15 AM,39.2,19.4,45,30.44,10.0,Calm,Calm,-,N/A,,Clear,0,2012-11-12 16:15:00
10:55 AM,42.8,19.4,39,30.42,10.0,West,4.6,-,N/A,,Clear,260,2012-11-12 16:55:00
11:15 AM,42.8,19.4,39,30.42,10.0,Calm,Calm,-,N/A,,Clear,0,2012-11-12 17:15:00
11:55 AM,46.4,19.4,34,30.40,10.0,NW,6.9,-,N/A,,Clear,310,2012-11-12 17:55:00
12:15 PM,46.4,19.4,34,30.39,10.0,West,6.9,-,N/A,,Clear,280,2012-11-12 18:15:00
1:15 PM,48.2,19.4,32,30.38,10.0,WNW,11.5,-,N/A,,Clear,300,2012-11-12 19:15:00
1:55 PM,48.2,21.2,34,30.39,10.0,WNW,8.1,-,N/A,,Clear,300,2012-11-12 19:55:00
2:15 PM,50.0,21.2,32,30.39,10.0,NNW,9.2,-,N/A,,Clear,340,2012-11-12 20:15:00
2:35 PM,50.0,19.4,30,30.38,10.0,NW,9.2,20.7,N/A,,Clear,310,2012-11-12 20:35:00
3:15 PM,50.0,19.4,30,30.39,10.0,NW,8.1,-,N/A,,Clear,320,2012-11-12 21:15:00
3:35 PM,50.0,19.4,30,30.39,10.0,West,8.1,-,N/A,,Clear,280,2012-11-12 21:35:00
4:35 PM,48.2,19.4,32,30.39,10.0,WNW,5.8,-,N/A,,Clear,300,2012-11-12 22:35:00
4:55 PM,46.4,21.2,37,30.40,10.0,WNW,5.8,-,N/A,,Clear,300,2012-11-12 22:55:00
5:35 PM,44.6,19.4,37,30.41,10.0,WNW,4.6,-,N/A,,Clear,300,2012-11-12 23:35:00
5:55 PM,44.6,19.4,37,30.42,10.0,NW,4.6,-,N/A,,Clear,310,2012-11-12 23:55:00
6:16 PM,44.6,19.4,37,30.42,10.0,WNW,3.5,-,N/A,,Clear,300,2012-11-13 00:16:00
6:35 PM,39.2,23.0,52,30.42,10.0,WNW,4.6,-,N/A,,Clear,290,2012-11-13 00:35:00
6:55 PM,42.8,19.4,39,30.42,10.0,NW,4.6,-,N/A,,Clear,310,2012-11-13 00:55:00
7:55 PM,37.4,21.2,52,30.44,10.0,WNW,4.6,-,N/A,,Clear,300,2012-11-13 01:55:00
8:35 PM,-9999,-9999,N/A,30.44,10.0,WNW,3.5,-,N/A,,Clear,300,2012-11-13 02:35:00
8:55 PM,35.6,23.0,60,30.45,10.0,Calm,Calm,-,N/A,,Clear,0,2012-11-13 02:55:00
9:16 PM,35.6,21.2,56,30.45,10.0,Calm,Calm,-,N/A,,Clear,0,2012-11-13 03:16:00
9:55 PM,33.8,23.0,65,30.46,10.0,Calm,Calm,-,N/A,,Clear,0,2012-11-13 03:55:00
10:35 PM,33.8,21.2,60,30.46,10.0,South,3.5,-,N/A,,Clear,170,2012-11-13 04:35:00
10:55 PM,33.8,23.0,65,30.46,10.0,Calm,Calm,-,N/A,,Clear,0,2012-11-13 04:55:00
11:35 PM,30.2,21.2,69,30.46,10.0,Calm,Calm,-,N/A,,Clear,0,2012-11-13 05:35:00
11:55 PM,30.2,23.0,75,30.47,10.0,Calm,Calm,-,N/A,,Clear,0,2012-11-13 05:55:00